Wahpeton, MN

5:11 AM CDT on April 25, 2017 (GMT -0500)
Stern

Weather History for KBWP - November, 2012

Change the Weather History Date:

Monday, November 26, 2012

  Actual Average (KFFM) Record (KFFM)
Temperature  
Mean Temperature 13 °F -  
Max Temperature 23 °F 30 °F 53 °F (1984)
Min Temperature 3 °F 16 °F -19 °F (1977)
Degree Days  
Heating Degree Days 52    
Moisture  
Dew Point 5 °F    
Average Humidity 70    
Maximum Humidity 85    
Minimum Humidity 46    
Precipitation  
Precipitation 0.00 in - - ()
Sea Level Pressure  
Sea Level Pressure 30.35 in    
Wind  
Wind Speed 7 mph (West)    
Max Wind Speed 12 mph    
Max Gust Speed 17 mph    
Visibility 10 miles    
Events      
Averages and records for this station are not official NWS values.
T = Trace of Precipitation, MM = Missing Value Source: NWS Daily Summary

Daily Weather History Graph

Daily Weather History Graph

Search for Another Location

Airport or City:

Trip Planner

Search our weather history database for the weather conditions in past years. The results will help you decide how hot, cold, wet, or windy it might be!

Date:

Astronomy

Nov. 26, 2012 Rise Set
Actual Time 7:43 AM CST 4:44 PM CST
Civil Twilight 7:09 AM CST 5:18 PM CST
Nautical Twilight 6:32 AM CST 5:55 PM CST
Astronomical Twilight 5:56 AM CST 6:31 PM CST
Moon 3:40 PM CST (11/26) 5:50 AM CST (11/26)
Length of Visible Light 10h 08m
Length of Day
9h 01m
Waxing Gibbous, 97% of the Moon is Illuminated
Nov 26
Waxing Gibbous
Nov 28
Full
Dec 6
Last Quarter
Dec 13
New
Dec 19
First Quarter

Hourly Weather History & Observations

Time (CST) Temp. Windchill Dew Point Humidity Pressure Visibility Wind Dir Wind Speed Gust Speed Precip Events Conditions
12:15 AM 10.4 °F -1.5 °F 5.0 °F 79% 30.31 in 10.0 mi North 8.1 mph - N/A   Scattered Clouds
12:35 AM 10.4 °F -1.5 °F 5.0 °F 79% 30.31 in 10.0 mi North 8.1 mph - N/A   Scattered Clouds
12:55 AM 10.4 °F 0.8 °F 5.0 °F 79% 30.31 in 10.0 mi North 5.8 mph - N/A   Clear
1:15 AM 8.6 °F -3.7 °F 5.0 °F 85% 30.31 in 10.0 mi NNW 8.1 mph - N/A   Clear
1:35 AM 8.6 °F -2.6 °F 3.2 °F 79% 30.32 in 10.0 mi NNW 6.9 mph - N/A   Clear
1:55 AM 8.6 °F -2.6 °F 3.2 °F 79% 30.33 in 10.0 mi North 6.9 mph - N/A   Clear
2:15 AM 8.6 °F -3.7 °F 3.2 °F 79% 30.33 in 10.0 mi NNW 8.1 mph - N/A   Clear
2:35 AM 8.6 °F -2.6 °F 3.2 °F 79% 30.34 in 10.0 mi NNW 6.9 mph - N/A   Clear
2:55 AM 6.8 °F -4.8 °F 1.4 °F 79% 30.35 in 10.0 mi NW 6.9 mph - N/A   Clear
3:15 AM 5.0 °F -5.6 °F 1.4 °F 85% 30.35 in 10.0 mi NW 5.8 mph - N/A   Clear
3:35 AM 5.0 °F -6.9 °F 1.4 °F 85% 30.35 in 10.0 mi NNW 6.9 mph - N/A   Clear
3:55 AM 5.0 °F -5.6 °F 1.4 °F 85% 30.36 in 10.0 mi NNW 5.8 mph - N/A   Clear
4:15 AM 5.0 °F -5.6 °F 1.4 °F 85% 30.36 in 10.0 mi NW 5.8 mph - N/A   Clear
4:35 AM 3.2 °F -7.8 °F -0.4 °F 85% 30.37 in 10.0 mi NW 5.8 mph - N/A   Clear
4:55 AM 3.2 °F -6.2 °F -0.4 °F 85% 30.38 in 10.0 mi NW 4.6 mph - N/A   Clear
5:15 AM 3.2 °F -7.8 °F -0.4 °F 85% 30.39 in 10.0 mi NW 5.8 mph - N/A   Clear
5:35 AM 3.2 °F -7.8 °F -0.4 °F 85% 30.39 in 10.0 mi WNW 5.8 mph - N/A   Clear
5:55 AM 3.2 °F -6.2 °F -0.4 °F 85% 30.40 in 10.0 mi West 4.6 mph - N/A   Clear
6:15 AM 3.2 °F -6.2 °F -0.4 °F 85% 30.40 in 10.0 mi West 4.6 mph - N/A   Clear
6:35 AM 3.2 °F -7.8 °F -0.4 °F 85% 30.41 in 10.0 mi West 5.8 mph - N/A   Clear
6:55 AM 3.2 °F -7.8 °F -0.4 °F 85% 30.42 in 10.0 mi West 5.8 mph - N/A   Clear
7:15 AM 3.2 °F -7.8 °F -0.4 °F 85% 30.43 in 10.0 mi WNW 5.8 mph - N/A   Clear
7:35 AM 3.2 °F -7.8 °F -2.2 °F 78% 30.43 in 10.0 mi NW 5.8 mph - N/A   Clear
7:55 AM 3.2 °F -6.2 °F -0.4 °F 85% 30.43 in 10.0 mi NW 4.6 mph - N/A   Clear
8:15 AM 5.0 °F -4.1 °F 1.4 °F 85% 30.44 in 10.0 mi NW 4.6 mph - N/A   Clear
8:35 AM 6.8 °F -4.8 °F 1.4 °F 79% 30.44 in 10.0 mi NW 6.9 mph - N/A   Clear
8:55 AM 8.6 °F -4.7 °F 3.2 °F 79% 30.44 in 10.0 mi NW 9.2 mph - N/A   Clear
9:15 AM 10.4 °F -3.3 °F 3.2 °F 73% 30.44 in 10.0 mi NW 10.4 mph - N/A   Clear
9:35 AM 10.4 °F -3.3 °F 3.2 °F 73% 30.44 in 10.0 mi NW 10.4 mph - N/A   Clear
9:55 AM 10.4 °F -2.4 °F 5.0 °F 79% 30.45 in 10.0 mi WNW 9.2 mph - N/A   Clear
10:15 AM 12.2 °F -0.2 °F 5.0 °F 73% 30.46 in 10.0 mi WNW 9.2 mph - N/A   Clear
10:35 AM 12.2 °F 0.7 °F 5.0 °F 73% 30.46 in 10.0 mi WNW 8.1 mph - N/A   Clear
10:55 AM 14.0 °F 3.9 °F 5.0 °F 67% 30.45 in 10.0 mi WNW 6.9 mph - N/A   Clear
11:15 AM 14.0 °F 3.9 °F 5.0 °F 67% 30.45 in 10.0 mi West 6.9 mph - N/A   Clear
11:35 AM 15.8 °F 7.2 °F 5.0 °F 62% 30.44 in 10.0 mi West 5.8 mph - N/A   Clear
11:55 AM 17.6 °F 8.2 °F 5.0 °F 58% 30.43 in 10.0 mi West 6.9 mph - N/A   Clear
12:15 PM 17.6 °F 9.3 °F 5.0 °F 58% 30.42 in 10.0 mi West 5.8 mph - N/A   Clear
12:35 PM 17.6 °F 6.4 °F 5.0 °F 58% 30.41 in 10.0 mi WSW 9.2 mph - N/A   Clear
12:55 PM 19.4 °F 10.4 °F 5.0 °F 54% 30.41 in 10.0 mi West 6.9 mph - N/A   Clear
1:15 PM 19.4 °F 10.4 °F 6.8 °F 58% 30.40 in 10.0 mi West 6.9 mph 17.3 mph N/A   Clear
1:35 PM 19.4 °F 9.5 °F 6.8 °F 58% 30.40 in 10.0 mi WSW 8.1 mph - N/A   Clear
1:55 PM 21.2 °F 10.1 °F 6.8 °F 54% 30.38 in 10.0 mi WNW 10.4 mph - N/A   Clear
2:15 PM 21.2 °F 11.7 °F 6.8 °F 54% 30.38 in 10.0 mi WSW 8.1 mph - N/A   Clear
2:35 PM 21.2 °F 11.7 °F 6.8 °F 54% 30.36 in 10.0 mi SW 8.1 mph - N/A   Clear
2:55 PM 23.0 °F 13.9 °F 6.8 °F 50% 30.35 in 10.0 mi SW 8.1 mph - N/A   Clear
3:15 PM 23.0 °F 13.9 °F 6.8 °F 50% 30.35 in 10.0 mi SW 8.1 mph - N/A   Clear
3:35 PM 23.0 °F 12.4 °F 6.8 °F 50% 30.34 in 10.0 mi SW 10.4 mph - N/A   Clear
3:55 PM 23.0 °F 12.4 °F 5.0 °F 46% 30.33 in 10.0 mi SW 10.4 mph - N/A   Clear
4:15 PM 23.0 °F 13.1 °F 6.8 °F 50% 30.33 in 10.0 mi SW 9.2 mph - N/A   Clear
4:35 PM 21.2 °F 12.6 °F 6.8 °F 54% 30.33 in 10.0 mi SW 6.9 mph - N/A   Clear
4:55 PM 23.0 °F 17.0 °F 6.8 °F 50% 30.33 in 10.0 mi SW 4.6 mph - N/A   Mostly Cloudy
5:15 PM 23.0 °F 13.9 °F 8.6 °F 54% 30.31 in 10.0 mi SSW 8.1 mph - N/A   Overcast
5:35 PM 23.0 °F 13.9 °F 8.6 °F 54% 30.31 in 10.0 mi SSW 8.1 mph - N/A   Overcast
5:55 PM 23.0 °F 13.9 °F 8.6 °F 54% 30.31 in 10.0 mi SSW 8.1 mph - N/A   Overcast
6:15 PM 21.2 °F 11.7 °F 8.6 °F 58% 30.30 in 10.0 mi South 8.1 mph - N/A   Mostly Cloudy
6:35 PM 21.2 °F 11.7 °F 8.6 °F 58% 30.30 in 10.0 mi South 8.1 mph - N/A   Overcast
6:55 PM 21.2 °F 10.9 °F 8.6 °F 58% 30.29 in 10.0 mi SSW 9.2 mph - N/A   Overcast
7:15 PM 21.2 °F 10.9 °F 8.6 °F 58% 30.28 in 10.0 mi South 9.2 mph - N/A   Overcast
7:35 PM 19.4 °F 7.9 °F 8.6 °F 63% 30.27 in 10.0 mi South 10.4 mph - N/A   Mostly Cloudy
7:55 PM 19.4 °F 7.2 °F 8.6 °F 63% 30.27 in 10.0 mi South 11.5 mph - N/A   Mostly Cloudy
8:15 PM 19.4 °F 8.6 °F 8.6 °F 63% 30.26 in 10.0 mi South 9.2 mph - N/A   Mostly Cloudy
8:35 PM 17.6 °F 7.3 °F 8.6 °F 68% 30.26 in 10.0 mi South 8.1 mph - N/A   Mostly Cloudy
8:55 PM 17.6 °F 9.3 °F 8.6 °F 68% 30.26 in 10.0 mi South 5.8 mph - N/A   Scattered Clouds
9:15 PM 17.6 °F 9.3 °F 8.6 °F 68% 30.26 in 10.0 mi South 5.8 mph - N/A   Scattered Clouds
9:35 PM 15.8 °F 6.1 °F 8.6 °F 73% 30.25 in 10.0 mi SE 6.9 mph - N/A   Clear
9:55 PM 15.8 °F 4.2 °F 8.6 °F 73% 30.25 in 10.0 mi SSE 9.2 mph - N/A   Clear
10:15 PM 15.8 °F 5.1 °F 8.6 °F 73% 30.25 in 10.0 mi SSE 8.1 mph - N/A   Clear
10:35 PM 14.0 °F 2.9 °F 8.6 °F 79% 30.24 in 10.0 mi SSE 8.1 mph - N/A   Clear
10:55 PM 14.0 °F 2.9 °F 8.6 °F 79% 30.23 in 10.0 mi SSE 8.1 mph - N/A   Clear
11:15 PM 14.0 °F 2.9 °F 8.6 °F 79% 30.23 in 10.0 mi SSE 8.1 mph - N/A   Mostly Cloudy
11:35 PM 14.0 °F 2.9 °F 8.6 °F 79% 30.23 in 10.0 mi SSE 8.1 mph - N/A   Scattered Clouds
11:55 PM 15.8 °F 5.1 °F 8.6 °F 73% 30.23 in 10.0 mi SSE 8.1 mph - N/A   Clear